Toulon, IL

1:46 AM CDT on August 28, 2015 (GMT -0500)
Stark County News | | Change Station
CLOSE
Current Station
Personal Weather Station
Location: Toulon, IL
Elevation: 735 ft
Nearby Weather Stations

Elev 735 ft 41.09 °N, 89.86 °W | Updated 2 minutes ago

Clear
Clear
60.6 °F
Feels Like 60.6 °F
N
5.3
Wind Variable Wind from ESE

Today
High -- | Low -- °F
--% Chance of Precip.
Yesterday
High -- | Low -- °F
Precip. -- in
6:21 AM 7:38 PM
Waxing Gibbous, 97% visible
Pressure 30.11 in
Visibility 10.0 miles
Clouds Clear
Dew Point 60 °F
Humidity 99%
Rainfall 0.00 in
Snow Depth Not available.
UV 0 out of 12
Pollen 9.90 out of 12
Air Quality Not available.
Flu Activity Not available.
METAR KC75 280635Z AUTO 00000KT 10SM CLR 15/14 A3011 RMK AO2 T01540136
Pressure 30.11 in
Visibility 10.0 miles
Clouds Clear
Dew Point 60 °F
Humidity 99%
Rainfall 0.00 in
Snow Depth Not available.
UV 0 out of 12
Pollen 9.90 out of 12
Air Quality Not available.
Flu Activity Not available.
METAR KC75 280635Z AUTO 00000KT 10SM CLR 15/14 A3011 RMK AO2 T01540136

10-Day Weather Forecast

×

Almanac

Astronomy

Aug. 28, 2015 Rise Set
Actual Time
Civil Twilight
Nautical Twilight
Astronomical Twilight
Moon
Length of Visible Light
Length of Day
Tomorrow will be .
, % of the Moon is Illuminated

Today's Extremes

State Highs State Lows

Community

WunderPhotos

Upload Photos

1,850,341 photos uploaded!

WunderBlogs® & News

Nearby

Air Quality

  Air Quality AQ Index Pollutant
Not available.

Snow Depth

Station Depth Elevation

Earthquake Activity

City Distance Mag. Time & Date
Minimum magnitude displayed is 2.5.

Coastal Water Temperatures

Place Temperature

Stations

Nearby Weather Stations

Station Location Temp. Windchill Dew Point Humidity Wind Precip. Elev Updated Type